Change the Weather History Date:

Wednesday, February 22, 2012

  Actual Average Record
Temperature  
Mean Temperature 48 °F 43 °F  
Max Temperature 64 °F 56 °F 71 °F (2002)
Min Temperature 32 °F 29 °F 10 °F (1955)
Degree Days  
Heating Degree Days 17    
Month to date heating degree days  
Since 1 July heating degree days  
Cooling Degree Days 0    
Month to date cooling degree days  
Year to date cooling degree days  
Moisture  
Dew Point 23 °F    
Average Humidity 41    
Maximum Humidity 66    
Minimum Humidity 21    
Precipitation  
Precipitation 0.00 in 0.06 in 0.41 in (2008)
Month to date precipitation 1.08  
Year to date precipitation 2.20  
Sea Level Pressure  
Sea Level Pressure 30.04 in    
Wind  
Wind Speed 5 mph (West)    
Max Wind Speed 10 mph    
Max Gust Speed -    
Visibility 10 miles    
Events      
T = Trace of Precipitation, MM = Missing Value Source: NWS Daily Summary

Daily Weather History Graph

Daily Weather History Graph

Search for Another Location

Airport or City:

Trip Planner

Search our weather history database for the weather conditions in past years. The results will help you decide how hot, cold, wet, or windy it might be!

Date:

Astronomy

Feb. 22, 2012 Rise Set
Actual Time 7:07 AM MST 6:19 PM MST
Civil Twilight 6:42 AM MST 6:44 PM MST
Nautical Twilight 6:13 AM MST 7:13 PM MST
Astronomical Twilight 5:43 AM MST 7:43 PM MST
Moon 7:12 AM MST (2/22) 7:23 PM MST (2/22)
Length of Visible Light 12h 02m
Length of Day
11h 11m
New Moon, 1% of the Moon is Illuminated
Feb 22
New Moon
Feb 29
First Quarter
Mar 8
Full
Mar 14
Last Quarter
Mar 22
New

Hourly Weather History & Observations

Time (MST) Temp. Windchill Dew Point Humidity Pressure Visibility Wind Dir Wind Speed Gust Speed Precip Events Conditions
12:53 AM 39.9 °F 35.1 °F 16.0 °F 38% 30.12 in 10.0 mi West 6.9 mph - N/A   Clear
1:53 AM 34.0 °F 28.0 °F 18.0 °F 52% 30.12 in 10.0 mi SSW 6.9 mph - N/A   Clear
2:53 AM 34.0 °F 28.0 °F 17.1 °F 50% 30.10 in 10.0 mi SSW 6.9 mph - N/A   Clear
3:53 AM 32.0 °F 26.4 °F 18.0 °F 56% 30.10 in 10.0 mi West 5.8 mph - N/A   Clear
4:53 AM 33.8 °F 28.6 °F 19.4 °F 56% 30.19 in 10.0 mi South 5.8 mph - N/A   Clear
5:53 AM 32.0 °F 28.7 °F 19.9 °F 61% 30.11 in 10.0 mi South 3.5 mph - N/A   Clear
6:53 AM 32.0 °F - 19.9 °F 61% 30.14 in 10.0 mi Calm Calm - N/A   Clear
7:53 AM 32.0 °F - 21.9 °F 66% 30.17 in 10.0 mi Calm Calm - N/A   Clear
8:53 AM 41.0 °F - 23.0 °F 49% 30.14 in 10.0 mi Calm Calm - N/A   Clear
9:53 AM 46.9 °F - 21.9 °F 37% 30.13 in 10.0 mi Calm Calm - N/A   Clear
10:53 AM 51.1 °F - 23.0 °F 33% 30.10 in 10.0 mi NNW 6.9 mph - N/A   Clear
11:53 AM 53.1 °F - 24.1 °F 32% 30.09 in 10.0 mi NNW 6.9 mph - N/A   Clear
12:53 PM 59.0 °F - 25.0 °F 27% 30.04 in 10.0 mi NNW 10.4 mph - N/A   Clear
1:53 PM 60.1 °F - 24.1 °F 25% 30.02 in 10.0 mi NW 8.1 mph - N/A   Clear
2:53 PM 62.1 °F - 24.1 °F 23% 29.99 in 10.0 mi Calm Calm - N/A   Clear
3:53 PM 64.0 °F - 23.0 °F 21% 29.96 in 10.0 mi WNW 9.2 mph - N/A   Clear
4:53 PM 64.0 °F - 23.0 °F 21% 29.94 in 10.0 mi NNW 5.8 mph - N/A   Clear
5:53 PM 62.1 °F - 24.1 °F 23% 29.94 in 10.0 mi West 4.6 mph - N/A   Clear
6:53 PM 55.9 °F - 27.0 °F 33% 29.96 in 10.0 mi West 6.9 mph - N/A   Clear
7:53 PM 52.0 °F - 26.1 °F 37% 29.98 in 10.0 mi SW 4.6 mph - N/A   Clear
8:53 PM 51.1 °F - 26.1 °F 38% 29.95 in 10.0 mi South 5.8 mph - N/A   Clear
9:53 PM 48.9 °F - 26.1 °F 41% 29.92 in 10.0 mi SSW 8.1 mph - N/A   Clear
10:53 PM 43.0 °F - 25.0 °F 49% 29.94 in 10.0 mi Calm Calm - N/A   Clear
11:53 PM 39.0 °F - 25.0 °F 57% 29.92 in 10.0 mi Calm Calm - N/A   Clear